Location: Givhans Ferry State Park
(33.0284°N, 80.3868°W)
Time: 04:43:52
(UTC-05:00)

Daily predictions for brighter satellites

Satellite Brightness Start Highest point End
(mag) Time Altitude Azimuth Time Altitude Azimuth Time Altitude Azimuth
CZ-3 R/B 4.1 02:07:24 10° WSW 03:05:53 75° S 03:17:47 10° E
Okean O Rocket 4.5 04:00:27 10° NE 04:01:00 13° NE 04:01:00 13° NE
Cosmos 1980 Rocket 3.5 04:12:53 35° NE 04:12:53 35° NE 04:16:07 10° NNE
ATLAS 5 CENTAUR R/B 3.5 04:18:04 28° ENE 04:18:04 28° ENE 04:20:54 10° NE
BREEZE-M DEB (TANK) 4.3 04:22:54 60° SE 04:22:54 60° SE 04:32:54 10° SE
CENTAUR R/B 4.2 04:28:08 29° S 04:28:08 29° S 04:31:58 10° S
SJ 16-02 3.4 04:39:17 19° NNE 04:39:17 19° NNE 04:40:36 10° NNE
Cosmos 1697 Rocket 4.5 04:43:04 19° N 04:43:04 19° N 04:44:49 10° N
USA 215 3.1 04:37:49 10° SE 04:44:20 71° SW 04:45:00 66° W
Cosmos 1125 Rocket 3.7 04:46:13 60° N 04:46:13 60° N 04:50:29 10° NNE
SL-16 R/B 3.2 04:42:40 10° S 04:48:00 44° ESE 04:53:22 10° NE
Hubble Space Telescope 2.0 04:53:32 36° SE 04:53:32 36° SE 04:56:26 10° ESE
Cosmos 1605 Rocket 3.9 04:51:16 10° S 04:57:24 82° E 05:03:30 10° N
Okean-O 4.5 05:00:42 10° NE 05:04:38 31° E 05:08:34 10° SSE
CZ-2C R/B 4.4 05:00:11 10° NE 05:04:41 30° E 05:09:13 10° SSE
SEDSat Delta rocket 3.1 05:04:52 68° SW 05:05:16 73° S 05:09:52 10° E
ASTRO E2 4.5 05:14:34 21° S 05:14:34 21° S 05:16:48 10° SSE
COSMOS 2455 3.1 05:09:50 10° NNW 05:15:52 69° ENE 05:21:50 10° SSE
CZ-4B R/B 3.4 05:14:08 10° N 05:19:23 49° WNW 05:21:43 31° SW
Cosmos 468 4.4 05:18:02 13° NNW 05:22:36 60° WSW 05:27:43 10° S
IRS-1C Rocket 4.2 05:25:18 10° N 05:30:21 48° WNW 05:35:23 10° SW
Cosmos 2263 Rocket 3.6 05:25:19 10° N 05:30:35 38° ENE 05:35:51 10° SE
USA 116 4.1 05:29:08 10° S 05:33:35 78° WSW 05:38:37 10° NNW
Lacrosse 5 rocket 2.3 05:34:29 27° SW 05:34:29 27° SW 05:37:31 10° S
Cosmos 405 Rocket 2.8 05:32:52 15° SSW 05:35:55 51° W 05:39:44 10° N
Cosmos 1269 Rocket 3.9 05:32:08 10° NNW 05:37:26 81° WSW 05:42:41 10° SSE
Okean O Rocket 3.6 05:37:26 10° NNW 05:38:29 14° NW 05:38:29 14° NW
SKYMED 2 3.6 05:37:26 10° SSE 05:41:46 80° ENE 05:46:07 10° N
Cosmos 2322 Rocket 2.2 05:39:13 10° SW 05:44:46 57° WNW 05:50:23 10° NNE
Delta 2 Rocket 3.4 05:43:26 23° SW 05:45:43 60° SSE 05:49:19 10° E
Radarsat Rocket 4.1 05:40:25 10° NNE 05:46:21 85° ESE 05:52:48 10° SSW
ISS -2.0 05:48:01 10° SSW 05:50:58 31° SE 05:53:55 10° ENE
PAYLOAD A 3.9 05:46:54 10° N 05:51:41 60° WNW 05:56:36 10° SSW
Cosmos 2360 Rocket 2.7 05:46:47 10° S 05:52:22 64° ESE 05:57:58 10° NNE
Cosmos 405 3.5 05:51:01 10° NNW 05:54:18 35° W 05:57:34 10° SSW
NOAA 6 4.1 05:49:50 10° N 05:54:51 53° WNW 05:59:49 10° SSW
Cosmos 1980 Rocket 3.8 05:54:41 14° WNW 05:54:59 14° NW 05:57:58 10° NNW
EO 1 Del DPAF 4.0 05:55:11 10° SSE 05:58:54 55° ENE 06:02:40 10° N
Landsat 4 3.8 05:56:24 10° SSE 06:00:06 78° ENE 06:03:49 10° N
Cosmos 1703 Rocket 3.8 05:55:42 10° S 06:00:08 75° E 06:04:37 10° N
Cosmos 1461 2.9 05:56:06 10° SSW 06:00:19 78° WNW 06:04:49 10° NNE
Cosmos 2227 4.5 05:55:29 10° NW 06:00:46 44° WSW 06:06:02 10° S
Cosmos 2242 Rocket 4.4 05:56:52 10° SW 06:00:51 29° WNW 06:04:51 10° NNW
ATLAS 5 CENTAUR R/B 3.0 05:59:40 17° WNW 06:01:24 21° NW 06:05:06 10° N
Milstar 3 Cent rocket 3.7 05:58:41 10° SW 06:04:03 45° SSE 06:13:30 10° E
Meteor 1-25 Rocket 4.2 06:00:05 10° N 06:05:50 80° W 06:11:38 10° S
Lacrosse 4 Rocket 3.4 06:04:41 10° S 06:08:18 32° ESE 06:11:54 10° NE
Intelsat 5-1 Rocket 4.0 06:01:12 11° WSW 06:12:10 41° SSW 06:16:38 10° ESE
Aureole 2 Rocket 1.8 06:12:37 10° SSW 06:15:15 52° WNW 06:17:54 10° N
Cosmos 1908 Rocket 3.5 06:14:24 10° N 06:18:45 73° W 06:23:04 10° S
IDEFIX/ARIANE 42P 3.3 06:14:52 10° N 06:19:24 31° WNW 06:23:55 10° SW
Cosmos 1725 Rocket 4.4 06:15:03 10° S 06:21:18 73° E 06:27:35 10° N
Cosmos 1733 Rocket 4.1 06:18:05 10° NW 06:21:38 25° W 06:25:12 10° SW
Cosmos 2251 Rocket 3.8 06:19:34 10° NNW 06:24:53 77° ENE 06:30:12 10° SSE
SMAP 3.9 06:21:23 10° NNE 06:25:58 56° E 06:30:31 10° S
COSMOS 2428 3.8 06:22:43 10° S 06:28:14 52° ESE 06:33:47 10° NNE
USA 229 DEB 4.3 06:22:40 10° NNW 06:29:53 66° ENE 06:37:14 10° SE
COSMO-SKYMED 1 3.6 06:26:20 10° SSW 06:29:56 26° W 06:33:35 10° NW
USA 229 4.4 06:22:47 10° NNW 06:29:59 66° ENE 06:37:20 10° SE
Okean 1-7 3.0 06:25:51 10° SSW 06:30:07 67° W 06:34:27 10° N
Cosmos 2322 3.7 06:25:36 10° SSW 06:31:15 77° WNW 06:36:55 10° NNE
